Flag for U.S.A. Weather past 2 weeks in Racine, Wisconsin, U.S.A.

Now
65 °F

Sunny.


Feels Like: 65 °F
Forecast: 60 / 72 °F
Wind: 9 mph from Northeast

Location: Batten International Airport

Current Time: Jul 24, 2014 at 11:17:02 AM

Latest Report: Jul 24, 2014 at 9:53 AM


Visibility: 10 mi

Pressure: 30.19 "Hg

Humidity: 70%

Dew point: 55 °F

Location of RacineLocation

Historic Weather in Racine — Graph

°F

Racine temperature yesterday

Maximum temperature yesterday: 69 °F (at 11:53 AM)
Minimum temperature yesterday: 57 °F (at 11:53 PM)
Average temperature yesterday: 63 °F

Past Weeks' High & Low Weather Summary

 TemperatureHumidityPressure
High86 °F (Jul 22, 11:53 AM)96% (Jul 10, 5:53 AM)30.22 "Hg (Jul 10, 5:53 AM)
Low53 °F (Jul 24, 3:53 AM)35% (Jul 14, 3:53 PM)29.79 "Hg (Jul 14, 2:53 PM)
Average67 °F71%30.04 "Hg
* Reported Jul 9 9:53 AM — Jul 24 9:53 AM, Racine, Weather by CustomWeather, © 2014

Note: Actual official high and low records may vary slightly from our data, if they occured in-between our weather recording intervals... More about our weather records

Advertising

Racine weather history for previous 24 hours

 ConditionsComfort  
Time TempWeatherWind HumidityBarometerVisibility
9:53 AM
Jul 24
65 °FSunny.9 mph70%30.19 "Hg10 mi
8:53 AM64 °FSunny.9 mph75%30.21 "Hg10 mi
7:53 AM61 °FSunny.10 mph81%30.22 "Hg10 mi
6:53 AM58 °FSunny.7 mph84%30.21 "Hg10 mi
5:53 AM55 °FClear.7 mph87%30.19 "Hg10 mi
4:53 AM54 °FClear.3 mph86%30.18 "Hg10 mi
3:53 AM53 °FClear.No wind93%30.16 "Hg10 mi
2:53 AM54 °FClear.5 mph90%30.17 "Hg10 mi
1:53 AM57 °FClear.6 mph90%30.17 "Hg10 mi
12:53 AM57 °FClear.6 mph83%30.17 "Hg10 mi
11:53 PM
Jul 23
57 °FClear.7 mph83%30.17 "Hg10 mi
10:53 PM58 °FClear.7 mph84%30.17 "Hg10 mi
9:53 PM58 °FClear.7 mph84%30.17 "Hg10 mi
8:53 PM58 °FSunny.7 mph84%30.17 "Hg10 mi
7:53 PM61 °FSunny.7 mph75%30.17 "Hg10 mi
6:53 PM63 °FSunny.9 mph73%30.17 "Hg10 mi
5:53 PM65 °FSunny.18 mph66%30.17 "Hg10 mi
4:53 PM65 °FSunny.16 mph68%30.18 "Hg10 mi
3:53 PM66 °FSunny.16 mph68%30.18 "Hg10 mi
2:53 PM66 °FSunny.16 mph68%30.19 "Hg10 mi
1:53 PM68 °FSunny.13 mph61%30.19 "Hg10 mi
12:53 PM67 °FSunny.17 mph63%30.19 "Hg10 mi
11:53 AM69 °FSunny.15 mph66%30.19 "Hg10 mi
Weather by CustomWeather, © 2014

See weather overviewHow to use our weather pages